CZ-6A DEB, 61269

Orbit data source: Space-Track

CZ-6A DEB, 61269 is space debris in LEO originally from a launch on Tue, 06 Aug 2024 UTC launched from the Taiyaun Space Center, China (TSC). Debris objects in space refer to the collection of defunct objects orbiting the Earth. Examples of debris include non-operational satellites, rocket bodies, and fragments generated from explosions, collisions, or faulty payload assembly.

Loading next visibility...
Identifier
61269, 2024-140SE
Orbit
LEO
Country
Flag of CNCN / PRC
Related business
Manufacturer
SAST
Mission
Spacecraft
Bus & Motor
Unknown
Mass
Unknown
Launch date (UTC)
2024-08-06 (2 years ago)
Launch vehicle
Unknown
Launch site
Taiyaun Space Center, China (TSC)
Object type
Payload
Rocket body
Debris
Shape & HBR
Unknown shape, 0.1 m
Radar Cross Section
Small (<0.1 m²)

Expand to show TLE details & history
Last TLE update: 15 hours ago

TLE from 15 hours ago
0 CZ-6A DEB
1 61269U 24140SE  26171.24593071  .00005035  00000-0  17668-2 0  9996
2 61269  89.0547 277.8059 0033879 138.3285 222.0504 14.34584754 94707
Epoch: 2026-06-20T05:54Z
TLE epoch observation values (Epoch: 2026-06-20T05:54:08.413Z)
Latitude
Longitude
-79.19247°
Altitude
797.56 km
Speed
7.445 km/s
True Right ascension
18h 31m 13s
True Declination
0° 00' 00"
Sunlit
Object was in full shadow at epoch
Visualization orbit readout
Latitude
Unknown
Longitude
Unknown
Altitude
Unknown
Speed
Unknown
Apparent Right ascension
Unknown
Apparent Declination
Unknown
Sunlit
N/A
Visualization observer readout
Local Sidereal Time
07:22:33
Azimuth
Unknown
Elevation
Unknown
Doppler factor
Unknown
Orbital elements
Apogee altitude
797.605 km
Perigee altitude
749.148 km
Semi-major axis
7,151.514 km
Eccentricity
0.00339
Inclination
89.0547°
RAAN
277.8059°
Arg. of periapsis
138.3285°
True anomaly
221.79119°
Mean anomaly
222.0504°
Eccentric anomaly
221.92071°
Mean motion
3.58877 °/min
Orbital period
100.31 mins
BSTAR
0.0017668
Loading maneuver chart data...
Computing Atmospheric mass density...
Loading historical data...
Loading historical data...
Loading historical data...
Loading historical data...
Loading historical data...
Loading historical data...
Loading historical data...

Documentation

Showing up to 5 results
|